Location: Krasnoyarskiy Pitomnik
(51.1333°N, 71.6167°E)
Time: 09:11:28
(UTC+00:00)

H-2A R/B - Pass Details

Date: 22 October 2021
Orbit: 577 x 653 km, 98.5° (Epoch: 06 December)

Event Time Altitude Azimuth Distance (km) Brightness Sun altitude
Rises 14:57:02 0° 10° (N) 2,810 5.5 -27.2°
Reaches altitude 10° 14:59:15 10° 4° (N) 1,909 4.7 -27.6°
Maximum altitude 15:03:10 44° 292° (WNW) 824 3.0 -28.2°
Drops below altitude 10° 15:07:07 10° 221° (SW) 1,920 4.8 -28.7°
Sets 15:09:21 0° 215° (SW) 2,828 5.6 -29.1°
